Location: McDonald Observatory
(30.6717°N, 104.0221°W)
Time: 01:10:47
(UTC-05:00)

Daily predictions for brighter satellites

Satellite Brightness Start Highest point End
(mag) Time Altitude Azimuth Time Altitude Azimuth Time Altitude Azimuth
CENTAUR R/B 4.2 00:25:33 10° NNW 00:30:40 36° NNE 00:30:40 36° NNE
SL-16 R/B 4.2 03:36:07 29° NE 03:36:07 29° NE 03:39:52 10° N
CZ-2D R/B 4.4 03:43:52 10° NNE 03:45:34 20° NE 03:45:34 20° NE
Cosmos 2082 Rocket 3.7 04:22:11 30° E 04:22:11 30° E 04:26:11 10° NE
Cosmos 2173 Rocket 4.1 04:42:43 71° ENE 04:42:43 71° ENE 04:48:47 10° N
NOSS 3-1 (C) 4.2 04:44:24 10° NNW 04:52:18 74° ENE 05:00:49 10° SE
ARIANE 5 R/B 4.1 04:49:24 10° N 04:51:58 27° NNW 04:51:58 27° NNW
Cosmos 1680 Rocket 4.0 04:56:27 58° E 04:56:27 58° E 05:01:19 10° NNE
BREEZE-M DEB (TANK) 4.3 04:58:37 61° SSE 04:59:25 67° SE 05:16:53 10° NE
In-Cosmos 22 Rocket 4.3 04:54:48 10° N 04:59:43 68° NE 04:59:43 68° NE
Cosmos 1459 Rocket 3.9 05:00:48 73° NW 05:00:48 73° NW 05:06:24 10° N
Cosmos 2112 Rocket 4.3 05:03:52 59° ESE 05:04:01 60° ESE 05:09:16 10° NNE
Resurs 1-4 Rocket 3.9 04:59:40 10° NNW 05:01:46 20° NNW 05:01:46 20° NNW
Hubble Space Telescope 2.6 05:10:33 25° ESE 05:10:33 25° ESE 05:12:23 10° ESE
Cosmos 1833 Rocket 2.5 05:11:23 86° WNW 05:11:23 86° WNW 05:17:03 10° NNE
SL-16 R/B 4.1 05:21:13 19° NW 05:21:13 19° NW 05:23:17 10° NW
Meteor 1-27 4.1 05:19:35 71° SSW 05:20:11 84° W 05:25:49 10° N
Lacrosse 5 2.9 05:20:36 10° NNW 05:25:27 45° NE 05:30:17 10° ESE
Timation 2 Rocket 4.3 05:24:20 31° S 05:27:04 56° ESE 05:33:00 10° NNE
CZ-2D R/B 4.1 05:25:20 10° NNW 05:26:54 14° NW 05:26:54 14° NW
Cosmos 1151 Rocket 4.0 05:31:28 34° NNW 05:31:28 34° NNW 05:34:12 10° N
OAO 2 Rocket 3.3 05:30:39 60° NW 05:31:13 66° NNW 05:36:09 10° ENE
Cosmos 1980 Rocket 4.4 05:30:44 10° N 05:35:18 25° ENE 05:39:53 10° ESE
Atlas 2A Centaur Rocket 3.7 05:33:13 38° SSW 05:35:22 53° SSE 05:59:33 10° E
Cosmos 1455 2.7 05:36:57 48° NNW 05:36:57 48° NNW 05:39:46 10° N
Cosmos 1933 Rocket 4.0 05:33:16 10° NNW 05:36:45 47° NW 05:36:45 47° NW
Delta 128 4.3 05:36:22 50° WSW 05:37:51 67° S 05:44:43 10° ESE
Cosmos 2233 Rocket 4.4 05:32:42 10° S 05:38:42 60° E 05:44:42 10° NNE
ATLAS 2A CENTAUR R/B 4.0 05:45:36 16° SSE 05:45:36 16° SSE 05:47:14 10° SE
CZ-4B R/B 3.1 05:40:57 10° NNE 05:45:30 83° ESE 05:47:24 35° S
Cosmos 2016 Rocket 4.2 05:44:36 41° WSW 05:45:45 45° W 05:51:34 10° N
ADEOS II 2.0 05:42:11 10° N 05:47:25 71° WNW 05:49:32 36° SSW
Cosmos 2278 3.6 05:41:52 10° NNW 05:47:29 70° WSW 05:53:05 10° S
Cosmos 1697 Rocket 3.2 05:43:50 10° NNW 05:49:27 61° ENE 05:55:02 10° SSE
Cosmos 1707 Rocket 4.0 05:47:27 17° S 05:50:44 60° E 05:55:03 10° NNE
Cosmos 1725 Rocket 4.2 05:58:27 28° SW 06:01:27 49° W 06:07:25 10° N
Cosmos 2082 Rocket 3.2 06:04:04 24° W 06:05:16 26° WNW 06:09:58 10° N
Okean O Rocket 1.5 06:01:41 10° N 06:06:04 69° WNW 06:08:41 23° SSW
CZ-4B DEB 4.1 06:03:17 10° N 06:08:48 82° WNW 06:14:14 10° SSW
PSLV R/B 3.1 06:12:59 24° NW 06:14:46 81° NNE 06:18:01 10° ESE
NOSS 3-1 (A) 4.4 06:08:15 10° NW 06:15:48 45° WSW 06:23:48 10° S
Cosmos 1371 Rocket 4.2 06:13:12 10° NNW 06:18:27 74° ENE 06:23:43 10° SSE
BREEZE M DEB (TANK) 2.1 06:17:20 19° NW 06:18:55 85° SW 06:23:31 10° SE
NOSS 3-3 (C) 3.9 06:14:36 19° SW 06:19:02 72° WNW 06:25:29 10° NNE
NOSS 3-3 (A) 3.9 06:14:37 19° SW 06:19:03 71° WNW 06:25:30 10° NNE
Cosmos 1408 2.5 06:16:34 10° N 06:20:10 86° E 06:23:45 10° S
Tiangong 2 4.1 06:20:50 10° N 06:20:58 10° N 06:21:07 10° N
CZ-3C R/B 3.0 06:21:54 10° S 06:22:32 11° SSE 06:23:31 10° SSE
Landsat 4 3.7 06:18:49 10° SSE 06:22:32 83° ENE 06:26:18 10° N
NOSS 2-1 (C) 3.1 06:21:44 23° SW 06:23:58 66° WNW 06:27:48 10° NNE
NOSS 2-1 (D) 3.2 06:21:52 23° SW 06:24:03 64° WNW 06:27:53 10° NNE
Cosmos 1892 4.5 06:23:49 10° NW 06:25:32 16° WNW 06:25:32 16° WNW
Cosmos 1656 4.2 06:22:48 10° NW 06:28:00 37° WSW 06:33:08 10° S
GPS 2-04 Rocket1 2.4 06:27:04 23° W 06:28:59 67° NNW 06:32:26 10° ENE
Cosmos 1869 4.0 06:27:30 19° SW 06:29:35 32° W 06:33:12 10° NNW
CZ-4B R/B 3.3 06:24:27 10° N 06:29:43 54° WNW 06:34:52 10° SSW
Lacrosse 4 Rocket 1.5 06:26:49 10° SSW 06:31:12 88° ESE 06:35:43 10° NNE
Cosmos 1825 2.1 06:27:30 10° N 06:31:18 70° W 06:35:04 10° S
Cosmos 1624 Rocket 4.1 06:28:30 10° NNW 06:33:45 85° ENE 06:38:56 10° SSE
USA 234 3.5 06:29:12 10° NE 06:35:44 69° SE 06:42:14 10° SSW
Meteor 1-31 Rocket 2.8 06:33:08 10° N 06:37:04 69° WNW 06:40:58 10° SSW
Cosmos 1464 Rocket 4.2 06:32:17 10° S 06:38:31 81° E 06:44:52 10° N
Cosmos 1869 Rocket 4.2 06:39:44 10° NNW 06:43:48 35° W 06:47:49 10° SSW
Cosmos 2322 Rocket 4.2 06:41:29 10° N 06:46:35 34° ENE 06:51:36 10° SE
NOSS 2-1 (E) 4.0 06:45:53 12° WSW 06:48:59 35° NW 06:52:39 10° NNE
Hubble Space Telescope 1.5 06:45:56 12° W 06:49:20 36° SSW 06:53:08 10° SE
Cosmos 2034 Rocket 4.3 06:45:39 10° S 06:51:51 75° E 06:58:01 10° N
Cosmos 1513 Rocket 4.5 06:46:34 10° S 06:52:38 90° W 06:58:43 10° N
ASTEX 1 3.4 06:49:54 10° N 06:54:48 88° E 06:59:41 10° S
Cosmos 2242 Rocket 3.8 06:51:49 10° SSW 06:56:09 50° W 07:00:30 10° N
BREEZE-M DEB (TANK) 4.1 06:54:23 10° WSW 06:56:30 15° SSW 06:59:56 10° S
EPKM 3.5 06:56:32 10° SSW 06:57:59 16° SSE 06:59:55 10° ESE
ATLAS 5 CENTAUR R/B 1.8 06:54:44 10° SW 06:59:12 62° WNW 07:04:00 10° NNE
SL-16 R/B 3.6 06:54:27 10° N 06:59:53 45° ENE 07:05:16 10° SE
NOAA 6 4.0 06:59:53 10° N 07:05:02 80° WNW 07:10:12 10° SSW
